Date String (YYYY-MM-DD hh:mm:ss) UTC,Instrument flags,Ambient pressure (hPa),Sample flow (lpm),Bypass flow (lpm),Sample temperature (°C),Ambient temperature (°C),ASC tube jacket temperature (°C),LED temperature (°C),Box temperature (°C),Sample RH (%),Span deviation,Mass concentration (μg/m³),Mass concentration (μg/m³),Mass concentration (μg/m³)
DateTimeUTC,F1_M11,P_M11,Q1_M11,Q2_M11,T1_M11,T2_M11,T3_M11,T4_M11,T5_M11,U1_M11,ZSPAN_M11,X0_M11,X2_M11,X1_M11
2022-02-11 10:00:00,,0819.9,5.00,0.00,22.2,23.0,00.0,31.0,24.3,09.6,0000.0,0001.78,0000.95,0000.59
2022-02-11 10:01:00,,0819.9,5.00,0.00,22.3,22.8,00.0,31.0,24.3,09.8,0000.0,0001.71,0000.92,0000.59
2022-02-11 10:02:00,,0820.0,4.99,0.00,22.3,22.6,00.0,31.1,24.2,09.5,0000.0,0001.68,0000.90,0000.59
2022-02-11 10:03:00,,0820.0,5.01,0.00,22.3,22.3,00.0,31.1,24.1,09.5,0000.0,0002.70,0000.88,0000.58
2022-02-11 10:04:00,,0819.9,4.99,0.00,22.2,22.2,00.0,31.1,24.1,09.6,0000.0,0002.49,0000.83,0000.58
2022-02-11 10:05:00,,0819.8,5.01,0.00,22.2,22.0,00.0,31.1,24.1,09.6,0000.0,0002.46,0000.82,0000.58
2022-02-11 10:06:00,,0819.9,4.98,0.00,22.2,21.8,00.0,31.1,24.0,09.5,0000.0,0002.39,0000.78,0000.59
2022-02-11 10:07:00,,0819.9,5.01,0.00,22.2,21.7,00.0,31.1,24.0,09.7,0000.0,0002.32,0000.73,0000.58
2022-02-11 10:08:00,,0819.9,5.00,0.00,22.2,21.6,00.0,31.1,24.0,09.7,0000.0,0002.37,0000.75,0000.60
2022-02-11 10:09:00,,0819.9,4.98,0.00,22.2,21.5,00.0,31.1,24.0,09.8,0000.0,0002.47,0000.77,0000.60
2022-02-11 10:10:00,,0819.9,5.00,0.00,22.2,21.4,00.0,31.1,23.9,09.7,0000.0,0002.47,0000.78,0000.60
2022-02-11 10:11:00,,0819.9,5.02,0.00,22.1,21.3,00.0,31.1,23.9,09.7,0000.0,0002.48,0000.79,0000.62
2022-02-11 10:12:00,,0820.0,4.99,0.00,22.1,21.2,00.0,31.1,23.9,09.7,0000.0,0002.45,0000.79,0000.63
2022-02-11 10:13:00,,0820.0,4.99,0.00,22.1,21.2,00.0,31.1,23.9,09.5,0000.0,0002.18,0000.80,0000.63
2022-02-11 10:14:00,,0819.9,5.00,0.00,22.1,21.1,00.0,31.1,23.8,09.6,0000.0,0001.18,0000.80,0000.63
2022-02-11 10:15:00,,0819.9,5.00,0.00,22.1,21.1,00.0,31.1,23.8,09.7,0000.0,0001.32,0000.82,0000.64
2022-02-11 10:16:00,,0820.0,5.00,0.00,22.1,21.0,00.0,31.1,23.8,09.6,0000.0,0001.77,0000.88,0000.65
2022-02-11 10:17:00,,0820.0,5.01,0.00,22.0,21.0,00.0,31.0,23.8,09.6,0000.0,0001.82,0000.89,0000.65
2022-02-11 10:18:00,,0820.0,4.99,0.00,22.0,21.0,00.0,31.0,23.8,09.6,0000.0,0001.80,0000.88,0000.65
2022-02-11 10:19:00,,0820.2,5.01,0.00,22.0,20.9,00.0,31.0,23.7,09.4,0000.0,0001.80,0000.88,0000.65
2022-02-11 10:20:00,,0820.3,5.00,0.00,22.0,21.0,00.0,31.0,23.7,09.5,0000.0,0001.73,0000.87,0000.65
2022-02-11 10:21:00,,0820.3,4.98,0.00,22.0,21.0,00.0,31.0,23.7,09.6,0000.0,0001.72,0000.86,0000.65
2022-02-11 10:22:00,,0820.3,5.02,0.00,21.9,21.0,00.0,31.0,23.7,09.8,0000.0,0001.94,0000.89,0000.65
2022-02-11 10:23:00,,0820.3,5.00,0.00,21.9,21.0,00.0,31.0,23.6,09.9,0000.0,0002.02,0000.91,0000.66
2022-02-11 10:24:00,,0820.2,4.99,0.00,21.9,21.0,00.0,31.0,23.6,09.8,0000.0,0002.25,0000.95,0000.66
2022-02-11 10:25:00,,0820.3,5.02,0.00,21.9,20.9,00.0,31.0,23.6,09.7,0000.0,0002.48,0001.00,0000.66
2022-02-11 10:26:00,,0820.3,4.99,0.00,21.9,20.9,00.0,30.9,23.6,09.6,0000.0,0002.46,0001.02,0000.67
2022-02-11 10:27:00,,0820.3,5.02,0.00,21.9,20.9,00.0,30.9,23.6,09.9,0000.0,0002.03,0000.98,0000.66
2022-02-11 10:28:00,,0820.3,4.99,0.00,21.9,20.9,00.0,30.9,23.6,09.8,0000.0,0002.06,0000.99,0000.66
2022-02-11 10:29:00,,0820.3,5.00,0.00,21.9,20.9,00.0,30.9,23.6,09.8,0000.0,0002.16,0001.01,0000.66
2022-02-11 10:30:00,,0820.3,5.00,0.00,21.9,21.4,00.0,30.9,23.7,09.6,0000.0,0002.15,0001.00,0000.66
2022-02-11 10:31:00,,0820.3,5.00,0.00,22.0,22.3,00.0,31.0,24.0,09.7,0000.0,0002.09,0000.99,0000.66
2022-02-11 10:32:00,,0820.3,5.00,0.00,22.2,23.0,00.0,31.1,24.3,09.5,0000.0,0002.05,0001.00,0000.66
2022-02-11 10:33:00,,0820.3,5.00,0.00,22.3,22.8,00.0,31.1,24.2,09.5,0000.0,0001.87,0000.98,0000.67
2022-02-11 10:34:00,,0820.3,5.00,0.00,22.3,22.6,00.0,31.1,24.2,09.5,0000.0,0001.95,0000.98,0000.66
2022-02-11 10:35:00,,0820.2,4.99,0.00,22.2,22.3,00.0,31.1,24.1,09.4,0000.0,0001.72,0000.94,0000.66
2022-02-11 10:36:00,,0820.3,5.00,0.00,22.3,22.0,00.0,31.1,24.1,09.4,0000.0,0001.58,0000.92,0000.67
2022-02-11 10:37:00,,0820.3,5.01,0.00,22.3,21.9,00.0,31.1,24.1,09.5,0000.0,0001.56,0000.93,0000.67
2022-02-11 10:38:00,,0820.4,4.99,0.00,22.2,21.7,00.0,31.1,24.0,09.4,0000.0,0001.57,0000.94,0000.68
2022-02-11 10:39:00,,0820.3,4.99,0.00,22.2,21.6,00.0,31.1,24.0,09.6,0000.0,0001.67,0000.97,0000.69
2022-02-11 10:40:00,,0820.3,5.01,0.00,22.2,21.5,00.0,31.1,24.0,09.5,0000.0,0001.62,0000.99,0000.70
2022-02-11 10:41:00,,0820.5,4.99,0.00,22.2,21.4,00.0,31.1,23.9,09.4,0000.0,0001.68,0001.02,0000.72
2022-02-11 10:42:00,,0820.6,5.01,0.00,22.2,21.3,00.0,31.1,23.9,09.5,0000.0,0001.71,0001.03,0000.72
2022-02-11 10:43:00,,0820.6,5.00,0.00,22.1,21.3,00.0,31.1,23.8,09.7,0000.0,0001.71,0001.03,0000.73
2022-02-11 10:44:00,,0820.6,5.01,0.00,22.1,21.3,00.0,31.1,23.8,09.4,0000.0,0001.80,0001.04,0000.74
2022-02-11 10:45:00,,0820.6,5.00,0.00,22.1,21.2,00.0,31.1,23.8,09.5,0000.0,0001.85,0001.07,0000.75
2022-02-11 10:46:00,,0820.5,5.01,0.00,22.1,21.2,00.0,31.1,23.8,09.6,0000.0,0002.12,0001.08,0000.76
2022-02-11 10:47:00,,0820.5,4.99,0.00,22.1,21.2,00.0,31.1,23.8,09.4,0000.0,0002.15,0001.05,0000.76
2022-02-11 10:48:00,,0820.5,5.00,0.00,22.0,21.1,00.0,31.1,23.8,09.5,0000.0,0002.11,0001.03,0000.77
2022-02-11 10:49:00,,0820.5,5.00,0.00,22.0,21.1,00.0,31.1,23.8,09.4,0000.0,0002.14,0001.05,0000.78
2022-02-11 10:50:00,,0820.6,5.01,0.00,22.0,21.0,00.0,31.0,23.8,09.4,0000.0,0002.03,0001.04,0000.77
2022-02-11 10:51:00,,0820.6,4.99,0.00,22.0,21.0,00.0,31.0,23.8,09.5,0000.0,0002.02,0001.04,0000.78
2022-02-11 10:52:00,,0820.6,5.00,0.00,22.0,21.0,00.0,31.0,23.7,09.6,0000.0,0001.99,0001.03,0000.78
2022-02-11 10:53:00,,0820.7,5.01,0.00,22.0,21.0,00.0,31.0,23.7,09.6,0000.0,0002.05,0001.03,0000.78
2022-02-11 10:54:00,,0820.7,4.99,0.00,21.9,21.0,00.0,31.0,23.6,09.6,0000.0,0002.03,0001.02,0000.78
2022-02-11 10:55:00,,0820.6,5.01,0.00,21.9,21.0,00.0,31.0,23.6,09.6,0000.0,0001.95,0001.02,0000.77
2022-02-11 10:56:00,,0820.7,5.00,0.00,21.9,21.0,00.0,31.0,23.6,09.5,0000.0,0001.81,0001.00,0000.76
2022-02-11 10:57:00,,0820.6,4.99,0.00,21.9,21.0,00.0,31.0,23.6,09.5,0000.0,0001.56,0001.00,0000.77
2022-02-11 10:58:00,,0820.7,5.01,0.00,21.9,21.0,00.0,31.0,23.5,09.4,0000.0,0001.48,0001.04,0000.77
2022-02-11 10:59:00,,0820.7,4.99,0.00,21.9,21.0,00.0,31.0,23.6,09.5,0000.0,0001.50,0001.03,0000.76
